Change the Weather History Date:

Wednesday, April 16, 2014

  Actual Average Record
Temperature  
Mean Temperature 38 °F 46 °F  
Max Temperature 45 °F 61 °F 89 °F (1958)
Min Temperature 31 °F 33 °F 11 °F (1961)
Degree Days  
Heating Degree Days 27 19  
Month to date heating degree days 370 341  
Since 1 July heating degree days 6963 6644  
Cooling Degree Days 0 0  
Month to date cooling degree days 0 0  
Year to date cooling degree days 0 0  
Moisture  
Dew Point 28 °F    
Average Humidity 71    
Maximum Humidity 92    
Minimum Humidity 49    
Precipitation  
Precipitation 0.12 in 0.06 in 1.10 in (1976)
Month to date precipitation 0.54 0.72  
Year to date precipitation 1.56 2.77  
Sea Level Pressure  
Sea Level Pressure 29.91 in    
Wind  
Wind Speed 12 mph (NNE)    
Max Wind Speed 22 mph    
Max Gust Speed 29 mph    
Visibility 8 miles    
Events Rain , Snow    
T = Trace of Precipitation, MM = Missing Value Source: NWS Daily Summary

Daily Weather History Graph

Daily Weather History Graph

Search for Another Location

Airport or City:

Trip Planner

Search our weather history database for the weather conditions in past years. The results will help you decide how hot, cold, wet, or windy it might be!

Date:

Astronomy

Apr. 16, 2014 Rise Set
Actual Time 6:01 AM MDT 7:31 PM MDT
Civil Twilight 5:31 AM MDT 8:02 PM MDT
Nautical Twilight 4:54 AM MDT 8:38 PM MDT
Astronomical Twilight 4:15 AM MDT 9:17 PM MDT
Moon 9:20 PM MDT (4/16) 6:47 AM MDT (4/16)
Length of Visible Light 14h 30m
Length of Day
13h 30m
Full, 98% of the Moon is Illuminated
Apr 16
Full
Apr 22
Last Quarter
Apr 29
New
May 6
First Quarter
May 14
Full

Hourly Weather History & Observations

Time (MDT) Temp. Windchill Dew Point Humidity Pressure Visibility Wind Dir Wind Speed Gust Speed Precip Events Conditions
12:55 AM 46.0 °F 38.5 °F 28.9 °F 51% 29.52 in 10.0 mi North 19.6 mph - N/A   Mostly Cloudy
1:55 AM 41.0 °F 32.2 °F 28.0 °F 60% 29.57 in 10.0 mi North 18.4 mph - N/A   Overcast
2:55 AM 37.0 °F 30.4 °F 28.9 °F 73% 29.60 in 9.0 mi North 9.2 mph - 0.01 in Rain Light Rain
3:55 AM 34.0 °F 26.6 °F 28.9 °F 82% 29.63 in 7.0 mi North 9.2 mph - 0.03 in Snow Light Snow
4:55 AM 33.1 °F 26.9 °F 28.9 °F 85% 29.68 in 4.0 mi NNW 6.9 mph - 0.02 in Snow Light Snow
4:59 AM 33.1 °F 28.7 °F 28.9 °F 85% 29.69 in 2.5 mi NW 4.6 mph - 0.00 in Snow Light Snow
5:39 AM 33.1 °F 24.9 °F 28.9 °F 85% 29.71 in 1.8 mi North 10.4 mph - 0.03 in Snow Light Snow
5:51 AM 32.0 °F 23.6 °F 30.2 °F 93% 29.72 in 1.2 mi NNW 10.4 mph - 0.04 in Snow Light Snow
5:55 AM 32.0 °F 24.2 °F 30.0 °F 92% 29.73 in 1.2 mi NNW 9.2 mph - 0.05 in Snow Light Snow
6:08 AM 33.1 °F 26.9 °F 30.0 °F 89% 29.73 in 2.5 mi NNW 6.9 mph - 0.01 in Snow Light Snow
6:16 AM 33.1 °F 26.9 °F 30.0 °F 89% 29.73 in 5.0 mi NNW 6.9 mph - 0.01 in Snow Light Snow
6:37 AM 33.1 °F 23.4 °F 30.0 °F 89% 29.75 in 4.0 mi North 13.8 mph - 0.01 in Snow Light Snow
6:55 AM 33.1 °F 22.2 °F 28.9 °F 85% 29.78 in 7.0 mi North 17.3 mph 24.2 mph 0.01 in   Overcast
7:44 AM 33.1 °F 23.9 °F 28.9 °F 85% 29.80 in 10.0 mi North 12.7 mph - N/A   Overcast
7:55 AM 33.1 °F 23.0 °F 28.9 °F 85% 29.82 in 7.0 mi North 15.0 mph - N/A   Overcast
8:10 AM 33.1 °F 23.0 °F 28.0 °F 82% 29.82 in 10.0 mi North 15.0 mph - N/A   Overcast
8:55 AM 33.1 °F 22.6 °F 28.0 °F 82% 29.86 in 10.0 mi North 16.1 mph - N/A   Overcast
9:13 AM 33.1 °F 23.0 °F 28.9 °F 85% 29.86 in 10.0 mi North 15.0 mph - N/A   Overcast
9:55 AM 34.0 °F 23.8 °F 28.9 °F 82% 29.90 in 10.0 mi NNE 16.1 mph 23.0 mph N/A   Overcast
10:26 AM 33.1 °F 23.4 °F 28.9 °F 85% 29.92 in 9.0 mi North 13.8 mph - N/A   Overcast
10:55 AM 33.1 °F 23.0 °F 28.0 °F 82% 29.97 in 10.0 mi North 15.0 mph - N/A   Overcast
11:55 AM 32.0 °F 21.6 °F 27.0 °F 82% 30.00 in 10.0 mi NNE 15.0 mph - N/A   Unknown
12:02 PM 33.1 °F 23.9 °F 28.0 °F 82% 29.98 in 10.0 mi North 12.7 mph - N/A   Overcast
12:55 PM 35.1 °F 26.4 °F 28.0 °F 76% 30.03 in 10.0 mi North 12.7 mph - N/A   Overcast
1:55 PM 37.0 °F 28.1 °F 28.0 °F 70% 30.06 in 10.0 mi North 15.0 mph - N/A   Overcast
2:55 PM 37.0 °F 27.7 °F 27.0 °F 67% 30.09 in 10.0 mi NNE 16.1 mph - N/A   Overcast
3:55 PM 37.9 °F 29.2 °F 26.1 °F 62% 30.11 in 10.0 mi NNE 15.0 mph - N/A   Overcast
4:55 PM 37.0 °F 28.9 °F 26.1 °F 65% 30.14 in 10.0 mi NNE 12.7 mph - N/A   Overcast
5:55 PM 37.0 °F 30.4 °F 25.0 °F 62% 30.16 in 10.0 mi NE 9.2 mph - N/A   Overcast
6:28 PM 37.9 °F 30.5 °F 25.0 °F 60% 30.12 in 10.0 mi ENE 11.5 mph - N/A   Overcast
6:55 PM 37.0 °F 29.8 °F 24.1 °F 59% 30.18 in 10.0 mi ENE 10.4 mph - N/A   Overcast
7:55 PM 35.1 °F 28.6 °F 25.0 °F 67% 30.22 in 10.0 mi East 8.1 mph - N/A   Overcast
8:55 PM 35.1 °F 27.9 °F 24.1 °F 64% 30.24 in 10.0 mi East 9.2 mph - N/A   Overcast
9:55 PM 34.0 °F 27.2 °F 24.1 °F 67% 30.26 in 10.0 mi ESE 8.1 mph - N/A   Overcast
10:55 PM 33.1 °F 26.9 °F 23.0 °F 66% 30.26 in 10.0 mi ESE 6.9 mph - N/A   Overcast
11:55 PM 33.1 °F 27.7 °F 24.1 °F 70% 30.28 in 10.0 mi ESE 5.8 mph - N/A   Overcast